User: anonymous   Login
Location: Unspecified
(0.0000°N, 0.0000°E)
Time: 19:24:30
(UTC+02:00)
Language:

Gurwin Techsat 1B - Orbit

View from above orbital plane
View from above orbital plane
View from above satellite
View from above satellite

Ground track
Ground track

The orbit data is extracted from the following two-line orbital elements,

1 25397U 98043D   17295.89903678 +.00000004 +00000-0 +20562-4 0  9997
2 25397 098.6213 235.6048 0001607 034.3612 325.7670 14.23631566001747
Epoch (UTC): 22 October 2017 21:34:36
Eccentricity: 0.0001607
inclination: 98.6213°
perigee height: 812 km
apogee height: 814 km
right ascension of ascending node: 235.6048°
argument of perigee: 34.3612°
revolutions per day: 14.23631566
mean anomaly at epoch: 325.7670°
orbit number at epoch: 174

The dashed part of the orbit path shows where the satellite is in the earth's shadow,  

DLR